Flag for U.S.A. Weather past 2 weeks in Boston, Massachusetts, U.S.A.

Now
48 °F

Passing clouds.


Feels Like: 43 °F
Forecast: 41 / 50 °F
Wind: 10 mph from North

Location: Logan International Airport


UV Index: 5 (Moderate)

Visibility: 10 mi


Pressure: 30.38 "Hg

Humidity: 39%

Dew point: 24 °F

Location of BostonLocation

Historic Weather in Boston

°F

Boston temperature yesterday

Maximum temperature yesterday: 41 °F (at 10:54 AM)
Minimum temperature yesterday: 31 °F (at 5:54 AM)
Average temperature yesterday: 38 °F

Past Weeks' High & Low Weather Summary

 TemperatureHumidityPressure
High75 °F (Apr 14, 11:54 AM)100% (Apr 8, 1:03 AM)30.82 "Hg (Apr 8, 1:03 AM)
Low31 °F (Apr 16, 7:54 AM)18% (Apr 6, 5:54 PM)29.31 "Hg (Apr 8, 5:54 PM)
Average49 °F59%30.05 "Hg
* Reported Apr 4 9:54 PM — Apr 19 9:54 PM, Boston, Weather by CustomWeather, © 2014

Note: Actual official high and low records may vary slightly from our data, if they occured in-between our weather recording intervals... More about our weather records

Advertising

Historic Weather Conditions — Data for Previous 24 hours

 ConditionsComfort  
Time TempWeatherWind HumidityBarometerVisibility
9:54 PM
Apr 19
48 °FPassing clouds.10 mph39%30.37 "Hg10 mi
8:54 PM51 °FPassing clouds.15 mph35%30.34 "Hg10 mi
7:54 PM54 °FPartly sunny.16 mph34%30.30 "Hg10 mi
6:54 PM58 °FPartly sunny.14 mph30%30.25 "Hg10 mi
5:54 PM60 °FPartly sunny.14 mph28%30.24 "Hg10 mi
4:54 PM62 °FScattered clouds.18 mph27%30.22 "Hg10 mi
3:54 PM62 °FPartly sunny.17 mph29%30.19 "Hg10 mi
2:54 PM62 °FScattered clouds.16 mph29%30.18 "Hg10 mi
1:54 PM60 °FScattered clouds.14 mph31%30.19 "Hg10 mi
12:54 PM60 °FPassing clouds.17 mph31%30.20 "Hg10 mi
11:54 AM59 °FPassing clouds.10 mph36%30.19 "Hg10 mi
10:54 AM57 °FSunny.16 mph41%30.20 "Hg10 mi
9:54 AM54 °FSunny.16 mph45%30.19 "Hg10 mi
8:54 AM50 °FSunny.12 mph52%30.18 "Hg10 mi
7:54 AM45 °FSunny.10 mph58%30.18 "Hg10 mi
6:54 AM41 °FPassing clouds.10 mph67%30.17 "Hg10 mi
5:54 AM39 °FPassing clouds.10 mph73%30.17 "Hg10 mi
4:54 AM39 °FPassing clouds.10 mph76%30.18 "Hg10 mi
3:54 AM38 °FPassing clouds.7 mph83%30.19 "Hg10 mi
2:54 AM38 °FOvercast.7 mph86%30.20 "Hg10 mi
1:54 AM37 °FPassing clouds.3 mph86%30.22 "Hg10 mi
12:54 AM38 °FMostly cloudy.5 mph83%30.24 "Hg10 mi
11:54 PM
Apr 18
38 °FPartly cloudy.6 mph83%30.26 "Hg9 mi
Weather by CustomWeather, © 2014

See weather overview